Year,Month,Day,Hour,Minute,Value (Times are PST for temperature in C)
2016,06,13,00,00,12.50
2016,06,13,00,01,12.50
2016,06,13,00,02,12.50
2016,06,13,00,03,12.50
2016,06,13,00,04,12.50
2016,06,13,00,05,12.50
2016,06,13,00,06,12.50
2016,06,13,00,07,12.40
2016,06,13,00,08,12.40
2016,06,13,00,09,12.40
2016,06,13,00,10,12.40
2016,06,13,00,11,12.40
2016,06,13,00,12,12.40
2016,06,13,00,13,12.40
2016,06,13,00,14,12.40
2016,06,13,00,15,12.40
2016,06,13,00,16,12.40
2016,06,13,00,17,12.40
2016,06,13,00,18,12.40
2016,06,13,00,19,12.40
2016,06,13,00,20,12.40
2016,06,13,00,21,12.40
2016,06,13,00,22,12.40
2016,06,13,00,23,12.40
2016,06,13,00,24,12.40
2016,06,13,00,25,12.40
2016,06,13,00,26,12.40
2016,06,13,00,27,12.40
2016,06,13,00,28,12.40
2016,06,13,00,29,12.40
2016,06,13,00,30,12.40
2016,06,13,00,31,12.40
2016,06,13,00,32,12.40
2016,06,13,00,33,12.40
2016,06,13,00,34,12.40
2016,06,13,00,35,12.40
2016,06,13,00,36,12.40
2016,06,13,00,37,12.40
2016,06,13,00,38,12.40
2016,06,13,00,39,12.40
2016,06,13,00,40,12.40
2016,06,13,00,41,12.40
2016,06,13,00,42,12.40
2016,06,13,00,43,12.40
2016,06,13,00,44,12.40
2016,06,13,00,45,12.40
2016,06,13,00,46,12.40
2016,06,13,00,47,12.40
2016,06,13,00,48,12.40
2016,06,13,00,49,12.40
2016,06,13,00,50,12.40
2016,06,13,00,51,12.40
2016,06,13,00,52,12.40
2016,06,13,00,53,12.40
2016,06,13,00,54,12.40
2016,06,13,00,55,12.40
2016,06,13,00,56,12.40
2016,06,13,00,57,12.40
2016,06,13,00,58,12.40
2016,06,13,00,59,12.40
2016,06,13,01,00,12.40
2016,06,13,01,01,12.40
2016,06,13,01,02,12.30
2016,06,13,01,03,12.30
2016,06,13,01,04,12.30
2016,06,13,01,05,12.30
2016,06,13,01,06,12.30
2016,06,13,01,07,12.30
2016,06,13,01,08,12.30
2016,06,13,01,09,12.30
2016,06,13,01,10,12.30
2016,06,13,01,11,12.30
2016,06,13,01,12,12.30
2016,06,13,01,13,12.30
2016,06,13,01,14,12.30
2016,06,13,01,15,12.30
2016,06,13,01,16,12.30
2016,06,13,01,17,12.30
2016,06,13,01,18,12.20
2016,06,13,01,19,12.20
2016,06,13,01,20,12.20
2016,06,13,01,21,12.20
2016,06,13,01,22,12.20
2016,06,13,01,23,12.20
2016,06,13,01,24,12.20
2016,06,13,01,25,12.20
2016,06,13,01,26,12.20
2016,06,13,01,27,12.20
2016,06,13,01,28,12.20
2016,06,13,01,29,12.20
2016,06,13,01,30,12.20
2016,06,13,01,31,12.20
2016,06,13,01,32,12.20
2016,06,13,01,33,12.20
2016,06,13,01,34,12.20
2016,06,13,01,35,12.20
2016,06,13,01,36,12.20
2016,06,13,01,37,12.10
2016,06,13,01,38,12.10
2016,06,13,01,39,12.10
2016,06,13,01,40,12.10
2016,06,13,01,41,12.10
2016,06,13,01,42,12.20
2016,06,13,01,43,12.20
2016,06,13,01,44,12.20
2016,06,13,01,45,12.10
2016,06,13,01,46,12.10
2016,06,13,01,47,12.10
2016,06,13,01,48,12.10
2016,06,13,01,49,12.10
2016,06,13,01,50,12.20
2016,06,13,01,51,12.10
2016,06,13,01,52,12.10
2016,06,13,01,53,12.10
2016,06,13,01,54,12.10
2016,06,13,01,55,12.10
2016,06,13,01,56,12.10
2016,06,13,01,57,12.10
2016,06,13,01,58,12.10
2016,06,13,01,59,12.10
2016,06,13,02,00,12.10
2016,06,13,02,01,12.10
2016,06,13,02,02,12.10
2016,06,13,02,03,12.10
2016,06,13,02,04,12.10
2016,06,13,02,05,12.10
2016,06,13,02,06,12.00
2016,06,13,02,07,12.00
2016,06,13,02,08,12.00
2016,06,13,02,09,12.00
2016,06,13,02,10,12.00
2016,06,13,02,11,12.00
2016,06,13,02,12,12.00
2016,06,13,02,13,11.90
2016,06,13,02,14,11.90
2016,06,13,02,15,11.90
2016,06,13,02,16,11.90
2016,06,13,02,17,11.90
2016,06,13,02,18,11.90
2016,06,13,02,19,11.90
2016,06,13,02,20,11.90
2016,06,13,02,21,11.90
2016,06,13,02,22,11.90
2016,06,13,02,23,11.90
2016,06,13,02,24,11.90
2016,06,13,02,25,11.90
2016,06,13,02,26,11.90
2016,06,13,02,27,11.90
2016,06,13,02,28,11.80
2016,06,13,02,29,11.80
2016,06,13,02,30,11.80
2016,06,13,02,31,11.80
2016,06,13,02,32,11.80
2016,06,13,02,33,11.80
2016,06,13,02,34,11.80
2016,06,13,02,35,11.80
2016,06,13,02,36,11.80
2016,06,13,02,37,11.80
2016,06,13,02,38,11.80
2016,06,13,02,39,11.80
2016,06,13,02,40,11.80
2016,06,13,02,41,11.70
2016,06,13,02,42,11.70
2016,06,13,02,43,11.70
2016,06,13,02,44,11.70
2016,06,13,02,45,11.70
2016,06,13,02,46,11.70
2016,06,13,02,47,11.70
2016,06,13,02,48,11.70
2016,06,13,02,49,11.70
2016,06,13,02,50,11.70
2016,06,13,02,51,11.70
2016,06,13,02,52,11.70
2016,06,13,02,53,11.70
2016,06,13,02,54,11.70
2016,06,13,02,55,11.70
2016,06,13,02,56,11.70
2016,06,13,02,57,11.70
2016,06,13,02,58,11.80
2016,06,13,02,59,11.80
2016,06,13,03,00,11.80
2016,06,13,03,01,11.80
2016,06,13,03,02,11.80
2016,06,13,03,03,11.80
2016,06,13,03,04,11.80
2016,06,13,03,05,11.80
2016,06,13,03,06,11.80
2016,06,13,03,07,11.80
2016,06,13,03,08,11.80
2016,06,13,03,09,11.80
2016,06,13,03,10,11.90
2016,06,13,03,11,11.90
2016,06,13,03,12,11.90
2016,06,13,03,13,11.90
2016,06,13,03,14,11.90
2016,06,13,03,15,11.90
2016,06,13,03,16,11.90
2016,06,13,03,17,11.90
2016,06,13,03,18,11.90
2016,06,13,03,19,11.90
2016,06,13,03,20,11.90
2016,06,13,03,21,11.90
2016,06,13,03,22,11.90
2016,06,13,03,23,12.00
2016,06,13,03,24,12.00
2016,06,13,03,25,12.00
2016,06,13,03,26,12.00
2016,06,13,03,27,12.00
2016,06,13,03,28,12.00
2016,06,13,03,29,12.10
2016,06,13,03,30,12.10
2016,06,13,03,31,12.10
2016,06,13,03,32,12.10
2016,06,13,03,33,12.10
2016,06,13,03,34,12.10
2016,06,13,03,35,12.10
2016,06,13,03,36,12.10
2016,06,13,03,37,12.10
2016,06,13,03,38,12.10
2016,06,13,03,39,12.10
2016,06,13,03,40,12.10
2016,06,13,03,41,12.10
2016,06,13,03,42,12.10
2016,06,13,03,43,12.10
2016,06,13,03,44,12.10
2016,06,13,03,45,12.10
2016,06,13,03,46,12.10
2016,06,13,03,47,12.10
2016,06,13,03,48,12.10
2016,06,13,03,49,12.10
2016,06,13,03,50,12.20
2016,06,13,03,51,12.20
2016,06,13,03,52,12.20
2016,06,13,03,53,12.20
2016,06,13,03,54,12.20
2016,06,13,03,55,12.20
2016,06,13,03,56,12.20
2016,06,13,03,57,12.20
2016,06,13,03,58,12.20
2016,06,13,03,59,12.20
2016,06,13,04,00,12.20
2016,06,13,04,01,12.20
2016,06,13,04,02,12.20
2016,06,13,04,03,12.20
2016,06,13,04,04,12.20
2016,06,13,04,05,12.20
2016,06,13,04,06,12.20
2016,06,13,04,07,12.20
2016,06,13,04,08,12.20
2016,06,13,04,09,12.20
2016,06,13,04,10,12.20
2016,06,13,04,11,12.20
2016,06,13,04,12,12.20
2016,06,13,04,13,12.20
2016,06,13,04,14,12.20
2016,06,13,04,15,12.20
2016,06,13,04,16,12.20
2016,06,13,04,17,12.20
2016,06,13,04,18,12.20
2016,06,13,04,19,12.20
2016,06,13,04,20,12.20
2016,06,13,04,21,12.20
2016,06,13,04,22,12.20
2016,06,13,04,23,12.20
2016,06,13,04,24,12.20
2016,06,13,04,25,12.20
2016,06,13,04,26,12.20
2016,06,13,04,27,12.20
2016,06,13,04,28,12.20
2016,06,13,04,29,12.20
2016,06,13,04,30,12.20
2016,06,13,04,31,12.20
2016,06,13,04,32,12.20
2016,06,13,04,33,12.20
2016,06,13,04,34,12.20
2016,06,13,04,35,12.20
2016,06,13,04,36,12.20
2016,06,13,04,37,12.20
2016,06,13,04,38,12.10
2016,06,13,04,39,12.10
2016,06,13,04,40,12.10
2016,06,13,04,41,12.10
2016,06,13,04,42,12.10
2016,06,13,04,43,12.10
2016,06,13,04,44,12.10
2016,06,13,04,45,12.10
2016,06,13,04,46,12.10
2016,06,13,04,47,12.10
2016,06,13,04,48,12.10
2016,06,13,04,49,12.10
2016,06,13,04,50,12.10
2016,06,13,04,51,12.10
2016,06,13,04,52,12.10
2016,06,13,04,53,12.10
2016,06,13,04,54,12.00
2016,06,13,04,55,12.00
2016,06,13,04,56,12.00
2016,06,13,04,57,12.00
2016,06,13,04,58,12.00
2016,06,13,04,59,12.00
2016,06,13,05,00,12.00
2016,06,13,05,01,12.00
2016,06,13,05,02,12.00
2016,06,13,05,03,12.00
2016,06,13,05,04,12.00
2016,06,13,05,05,12.00
2016,06,13,05,06,12.00
2016,06,13,05,07,12.00
2016,06,13,05,08,11.90
2016,06,13,05,09,11.90
2016,06,13,05,10,11.90
2016,06,13,05,11,11.90
2016,06,13,05,12,11.90
2016,06,13,05,13,11.90
2016,06,13,05,14,11.90
2016,06,13,05,15,11.80
2016,06,13,05,16,11.80
2016,06,13,05,17,11.70
2016,06,13,05,18,11.60
2016,06,13,05,19,11.50
2016,06,13,05,20,11.50
2016,06,13,05,21,11.40
2016,06,13,05,22,11.30
2016,06,13,05,23,11.30
2016,06,13,05,24,11.20
2016,06,13,05,25,11.20
2016,06,13,05,26,11.10
2016,06,13,05,27,11.10
2016,06,13,05,28,11.10
2016,06,13,05,29,11.10
2016,06,13,05,30,11.20
2016,06,13,05,31,11.20
2016,06,13,05,32,11.20
2016,06,13,05,33,11.20
2016,06,13,05,34,11.20
2016,06,13,05,35,11.30
2016,06,13,05,36,11.30
2016,06,13,05,37,11.30
2016,06,13,05,38,11.30
2016,06,13,05,39,11.30
2016,06,13,05,40,11.30
2016,06,13,05,41,11.30
2016,06,13,05,42,11.30
2016,06,13,05,43,11.40
2016,06,13,05,44,11.40
2016,06,13,05,45,11.40
2016,06,13,05,46,11.40
2016,06,13,05,47,11.40
2016,06,13,05,48,11.40
2016,06,13,05,49,11.40
2016,06,13,05,50,11.30
2016,06,13,05,51,11.30
2016,06,13,05,52,11.30
2016,06,13,05,53,11.30
2016,06,13,05,54,11.30
2016,06,13,05,55,11.30
2016,06,13,05,56,11.20
2016,06,13,05,57,11.20
2016,06,13,05,58,11.20
2016,06,13,05,59,11.20
2016,06,13,06,00,11.20
2016,06,13,06,01,11.20
2016,06,13,06,02,11.20
2016,06,13,06,03,11.20
2016,06,13,06,04,11.10
2016,06,13,06,05,11.10
2016,06,13,06,06,11.10
2016,06,13,06,07,11.10
2016,06,13,06,08,11.10
2016,06,13,06,09,11.10
2016,06,13,06,10,11.10
2016,06,13,06,11,11.10
2016,06,13,06,12,11.10
2016,06,13,06,13,11.10
2016,06,13,06,14,11.10
2016,06,13,06,15,11.10
2016,06,13,06,16,11.10
2016,06,13,06,17,11.00
2016,06,13,06,18,11.00
2016,06,13,06,19,11.00
2016,06,13,06,20,10.90
2016,06,13,06,21,10.90
2016,06,13,06,22,10.90
2016,06,13,06,23,10.90
2016,06,13,06,24,10.90
2016,06,13,06,25,10.80
2016,06,13,06,26,10.80
2016,06,13,06,27,10.80
2016,06,13,06,28,10.80
2016,06,13,06,29,10.70
2016,06,13,06,30,10.70
2016,06,13,06,31,10.70
2016,06,13,06,32,10.70
2016,06,13,06,33,10.70
2016,06,13,06,34,10.60
2016,06,13,06,35,10.60
2016,06,13,06,36,10.60
2016,06,13,06,37,10.60
2016,06,13,06,38,10.60
2016,06,13,06,39,10.60
2016,06,13,06,40,10.50
2016,06,13,06,41,10.50
2016,06,13,06,42,10.50
2016,06,13,06,43,10.50
2016,06,13,06,44,10.50
2016,06,13,06,45,10.50
2016,06,13,06,46,10.50
2016,06,13,06,47,10.40
2016,06,13,06,48,10.40
2016,06,13,06,49,10.40
2016,06,13,06,50,10.40
2016,06,13,06,51,10.40
2016,06,13,06,52,10.40
2016,06,13,06,53,10.30
2016,06,13,06,54,10.30
2016,06,13,06,55,10.30
2016,06,13,06,56,10.30
2016,06,13,06,57,10.30
2016,06,13,06,58,10.30
2016,06,13,06,59,10.30
2016,06,13,07,00,10.30
2016,06,13,07,01,10.20
2016,06,13,07,02,10.30
2016,06,13,07,03,10.30
2016,06,13,07,04,10.30
2016,06,13,07,05,10.30
2016,06,13,07,06,10.30
2016,06,13,07,07,10.30
2016,06,13,07,08,10.30
2016,06,13,07,09,10.30
2016,06,13,07,10,10.30
2016,06,13,07,11,10.20
2016,06,13,07,12,10.20
2016,06,13,07,13,10.20
2016,06,13,07,14,10.20
2016,06,13,07,15,10.20
2016,06,13,07,16,10.10
2016,06,13,07,17,10.10
2016,06,13,07,18,10.10
2016,06,13,07,19,10.10
2016,06,13,07,20,10.10
2016,06,13,07,21,10.10
2016,06,13,07,22,10.10
2016,06,13,07,23,10.10
2016,06,13,07,24,10.10
2016,06,13,07,25,10.10
2016,06,13,07,26,10.10
2016,06,13,07,27,10.10
2016,06,13,07,28,10.10
2016,06,13,07,29,10.10
2016,06,13,07,30,10.10
2016,06,13,07,31,10.10
2016,06,13,07,32,10.10
2016,06,13,07,33,10.10
2016,06,13,07,34,10.10
2016,06,13,07,35,10.10
2016,06,13,07,36,10.00
2016,06,13,07,37,10.00
2016,06,13,07,38,10.00
2016,06,13,07,39,10.00
2016,06,13,07,40,10.00
2016,06,13,07,41,10.00
2016,06,13,07,42,10.00
2016,06,13,07,43,9.90
2016,06,13,07,44,9.90
2016,06,13,07,45,10.00
2016,06,13,07,46,10.00
2016,06,13,07,47,10.00
2016,06,13,07,48,10.00
2016,06,13,07,49,10.00
2016,06,13,07,50,10.00
2016,06,13,07,51,10.00
2016,06,13,07,52,10.10
2016,06,13,07,53,10.10
2016,06,13,07,54,10.10
2016,06,13,07,55,10.00
2016,06,13,07,56,10.00
2016,06,13,07,57,10.00
2016,06,13,07,58,10.00
2016,06,13,07,59,10.00
2016,06,13,08,00,10.00
2016,06,13,08,01,10.00
2016,06,13,08,02,10.00
2016,06,13,08,03,10.10
2016,06,13,08,04,10.10
2016,06,13,08,05,10.10
2016,06,13,08,06,10.10
2016,06,13,08,07,10.10
2016,06,13,08,08,10.10
2016,06,13,08,09,10.10
2016,06,13,08,10,10.00
2016,06,13,08,11,10.00
2016,06,13,08,12,10.00
2016,06,13,08,13,10.00
2016,06,13,08,14,10.00
2016,06,13,08,15,9.90
2016,06,13,08,16,9.90
2016,06,13,08,17,9.90
2016,06,13,08,18,9.90
2016,06,13,08,19,9.90
2016,06,13,08,20,9.90
2016,06,13,08,21,9.90
2016,06,13,08,22,9.90
2016,06,13,08,23,9.90
2016,06,13,08,24,9.90
2016,06,13,08,25,9.90
2016,06,13,08,26,9.90
2016,06,13,08,27,9.90
2016,06,13,08,28,9.90
2016,06,13,08,29,10.00
2016,06,13,08,30,10.00
2016,06,13,08,31,10.00
2016,06,13,08,32,10.00
2016,06,13,08,33,10.00
2016,06,13,08,34,9.90
2016,06,13,08,35,9.90
2016,06,13,08,36,10.00
2016,06,13,08,37,10.00
2016,06,13,08,38,10.00
2016,06,13,08,39,10.00
2016,06,13,08,40,10.00
2016,06,13,08,41,9.90
2016,06,13,08,42,9.90
2016,06,13,08,43,9.90
2016,06,13,08,44,9.90
2016,06,13,08,45,9.90
2016,06,13,08,46,9.90
2016,06,13,08,47,9.90
2016,06,13,08,48,9.90
2016,06,13,08,49,9.90
2016,06,13,08,50,9.90
2016,06,13,08,51,9.90
2016,06,13,08,52,9.90
2016,06,13,08,53,9.90
2016,06,13,08,54,9.90
2016,06,13,08,55,9.90
2016,06,13,08,56,9.90
2016,06,13,08,57,9.90
2016,06,13,08,58,10.00
2016,06,13,08,59,10.00
2016,06,13,09,00,10.00
2016,06,13,09,01,10.00
2016,06,13,09,02,10.00
2016,06,13,09,03,10.10
2016,06,13,09,04,10.10
2016,06,13,09,05,10.10
2016,06,13,09,06,10.10
2016,06,13,09,07,10.10
2016,06,13,09,08,10.10
2016,06,13,09,09,10.10
2016,06,13,09,10,10.10
2016,06,13,09,11,10.10
2016,06,13,09,12,10.10
2016,06,13,09,13,10.10
2016,06,13,09,14,10.10
2016,06,13,09,15,10.10
2016,06,13,09,16,10.10
2016,06,13,09,17,10.10
2016,06,13,09,18,10.10
2016,06,13,09,19,10.10
2016,06,13,09,20,10.20
2016,06,13,09,21,10.20
2016,06,13,09,22,10.20
2016,06,13,09,23,10.20
2016,06,13,09,24,10.20
2016,06,13,09,25,10.30
2016,06,13,09,26,10.30
2016,06,13,09,27,10.30
2016,06,13,09,28,10.30
2016,06,13,09,29,10.30
2016,06,13,09,30,10.30
2016,06,13,09,31,10.30
2016,06,13,09,32,10.40
2016,06,13,09,33,10.40
2016,06,13,09,34,10.40
2016,06,13,09,35,10.40
2016,06,13,09,36,10.40
2016,06,13,09,37,10.40
2016,06,13,09,38,10.40
2016,06,13,09,39,10.40
2016,06,13,09,40,10.40
2016,06,13,09,41,10.40
2016,06,13,09,42,10.40
2016,06,13,09,43,10.40
2016,06,13,09,44,10.40
2016,06,13,09,45,10.40
2016,06,13,09,46,10.40
2016,06,13,09,47,10.40
2016,06,13,09,48,10.30
2016,06,13,09,49,10.40
2016,06,13,09,50,10.40
2016,06,13,09,51,10.40
2016,06,13,09,52,10.40
2016,06,13,09,53,10.40
2016,06,13,09,54,10.40
2016,06,13,09,55,10.40
2016,06,13,09,56,10.40
2016,06,13,09,57,10.40
2016,06,13,09,58,10.40
2016,06,13,09,59,10.40
2016,06,13,10,00,10.50
2016,06,13,10,01,10.50
2016,06,13,10,02,10.60
2016,06,13,10,03,10.60
2016,06,13,10,04,10.50
2016,06,13,10,05,10.50
2016,06,13,10,06,10.50
2016,06,13,10,07,10.50
2016,06,13,10,08,10.50
2016,06,13,10,09,10.60
2016,06,13,10,10,10.60
2016,06,13,10,11,10.70
2016,06,13,10,12,10.70
2016,06,13,10,13,10.70
2016,06,13,10,14,10.70
2016,06,13,10,15,10.70
2016,06,13,10,16,10.70
2016,06,13,10,17,10.70
2016,06,13,10,18,10.80
2016,06,13,10,19,10.70
2016,06,13,10,20,10.70
2016,06,13,10,21,10.70
2016,06,13,10,22,10.70
2016,06,13,10,23,10.60
2016,06,13,10,24,10.60
2016,06,13,10,25,10.60
2016,06,13,10,26,10.60
2016,06,13,10,27,10.60
2016,06,13,10,29,10.50
2016,06,13,10,30,10.50
2016,06,13,10,31,10.50
2016,06,13,10,32,10.50
2016,06,13,10,33,10.50
2016,06,13,10,34,10.50
2016,06,13,10,35,10.50
2016,06,13,10,36,10.50
2016,06,13,10,37,10.50
2016,06,13,10,38,10.50
2016,06,13,10,39,10.50
2016,06,13,10,40,10.40
2016,06,13,10,41,10.50
2016,06,13,10,42,10.50
2016,06,13,10,43,10.50
2016,06,13,10,44,10.50
2016,06,13,10,45,10.50
2016,06,13,10,46,10.50
2016,06,13,10,47,10.50
2016,06,13,10,48,10.50
2016,06,13,10,49,10.50
2016,06,13,10,50,10.50
2016,06,13,10,51,10.50
2016,06,13,10,52,10.50
2016,06,13,10,53,10.50
2016,06,13,10,54,10.50
2016,06,13,10,55,10.50
2016,06,13,10,56,10.50
2016,06,13,10,57,10.50
2016,06,13,10,58,10.50
2016,06,13,10,59,10.50
2016,06,13,11,00,10.50
2016,06,13,11,01,10.40
2016,06,13,11,02,10.40
2016,06,13,11,03,10.40
2016,06,13,11,04,10.40
2016,06,13,11,05,10.40
2016,06,13,11,06,10.40
2016,06,13,11,07,10.40
2016,06,13,11,08,10.40
2016,06,13,11,09,10.40
2016,06,13,11,10,10.30
2016,06,13,11,11,10.30
2016,06,13,11,12,10.20
2016,06,13,11,13,10.20
2016,06,13,11,14,10.20
2016,06,13,11,15,10.20
2016,06,13,11,16,10.20
2016,06,13,11,17,10.20
2016,06,13,11,18,10.20
2016,06,13,11,19,10.30
2016,06,13,11,20,10.30
2016,06,13,11,21,10.30
2016,06,13,11,22,10.30
2016,06,13,11,23,10.30
2016,06,13,11,24,10.30
2016,06,13,11,25,10.30
2016,06,13,11,26,10.30
2016,06,13,11,27,10.30
2016,06,13,11,28,10.40
2016,06,13,11,29,10.40
2016,06,13,11,30,10.40
2016,06,13,11,31,10.50
2016,06,13,11,32,10.50
2016,06,13,11,33,10.50
2016,06,13,11,34,10.50
2016,06,13,11,35,10.50
2016,06,13,11,36,10.50
2016,06,13,11,37,10.40
2016,06,13,11,38,10.40
2016,06,13,11,39,10.40
2016,06,13,11,40,10.40
2016,06,13,11,41,10.40
2016,06,13,11,42,10.30
2016,06,13,11,43,10.30
2016,06,13,11,44,10.30
2016,06,13,11,45,10.30
2016,06,13,11,46,10.30
2016,06,13,11,47,10.30
2016,06,13,11,48,10.30
2016,06,13,11,49,10.30
2016,06,13,11,50,10.30
2016,06,13,11,51,10.30
2016,06,13,11,52,10.30
2016,06,13,11,53,10.30
2016,06,13,11,54,10.20
2016,06,13,11,55,10.20
2016,06,13,11,56,10.20
2016,06,13,11,57,10.20
2016,06,13,11,58,10.20
2016,06,13,11,59,10.20
2016,06,13,12,00,10.30
2016,06,13,12,01,10.30
2016,06,13,12,02,10.30
2016,06,13,12,03,10.30
2016,06,13,12,04,10.30
2016,06,13,12,05,10.30
2016,06,13,12,06,10.30
2016,06,13,12,07,10.30
2016,06,13,12,08,10.30
2016,06,13,12,09,10.30
2016,06,13,12,10,10.30
2016,06,13,12,11,10.30
2016,06,13,12,12,10.30
2016,06,13,12,13,10.30
2016,06,13,12,14,10.40
2016,06,13,12,15,10.30
2016,06,13,12,16,10.40
2016,06,13,12,17,10.40
2016,06,13,12,18,10.40
2016,06,13,12,19,10.50
2016,06,13,12,20,10.50
2016,06,13,12,21,10.60
2016,06,13,12,22,10.60
2016,06,13,12,23,10.60
2016,06,13,12,24,10.60
2016,06,13,12,25,10.60
2016,06,13,12,26,10.60
2016,06,13,12,27,10.60
2016,06,13,12,28,10.60
2016,06,13,12,29,10.60
2016,06,13,12,30,10.60
2016,06,13,12,31,10.60
2016,06,13,12,32,10.70
2016,06,13,12,33,10.70
2016,06,13,12,34,10.70
2016,06,13,12,35,10.70
2016,06,13,12,36,10.70
2016,06,13,12,37,10.70
2016,06,13,12,38,10.70
2016,06,13,12,39,10.70
2016,06,13,12,40,10.80
2016,06,13,12,41,10.80
2016,06,13,12,42,10.80
2016,06,13,12,43,10.80
2016,06,13,12,44,10.80
2016,06,13,12,45,10.80
2016,06,13,12,46,10.80
2016,06,13,12,47,10.80
2016,06,13,12,48,10.90
2016,06,13,12,49,10.90
2016,06,13,12,50,10.90
2016,06,13,12,51,10.90
2016,06,13,12,52,10.90
2016,06,13,12,53,10.80
2016,06,13,12,54,10.70
2016,06,13,12,55,10.70
2016,06,13,12,56,10.70
2016,06,13,12,57,10.70
2016,06,13,12,58,10.70
2016,06,13,12,59,10.70
2016,06,13,13,00,10.70
2016,06,13,13,01,10.70
2016,06,13,13,02,10.70
2016,06,13,13,03,10.80
2016,06,13,13,04,10.80
2016,06,13,13,05,10.80
2016,06,13,13,06,10.80
2016,06,13,13,07,10.80
2016,06,13,13,08,10.80
2016,06,13,13,09,10.80
2016,06,13,13,10,10.80
2016,06,13,13,11,10.70
2016,06,13,13,12,10.70
2016,06,13,13,13,10.80
2016,06,13,13,14,10.80
2016,06,13,13,15,10.80
2016,06,13,13,16,10.80
2016,06,13,13,17,10.80
2016,06,13,13,18,10.80
2016,06,13,13,19,10.80
2016,06,13,13,20,10.90
2016,06,13,13,21,10.90
2016,06,13,13,22,10.90
2016,06,13,13,23,10.90
2016,06,13,13,24,11.00
2016,06,13,13,25,11.00
2016,06,13,13,26,11.00
2016,06,13,13,27,11.10
2016,06,13,13,28,11.20
2016,06,13,13,29,11.20
2016,06,13,13,30,11.20
2016,06,13,13,31,11.20
2016,06,13,13,32,11.20
2016,06,13,13,33,11.10
2016,06,13,13,34,11.10
2016,06,13,13,35,11.10
2016,06,13,13,36,11.10
2016,06,13,13,37,11.10
2016,06,13,13,38,11.00
2016,06,13,13,39,11.00
2016,06,13,13,40,11.10
2016,06,13,13,41,11.10
2016,06,13,13,42,11.10
2016,06,13,13,43,11.20
2016,06,13,13,44,11.20
2016,06,13,13,45,11.20
2016,06,13,13,46,11.20
2016,06,13,13,47,11.20
2016,06,13,13,48,11.20
2016,06,13,13,49,11.20
2016,06,13,13,50,11.20
2016,06,13,13,51,11.20
2016,06,13,13,52,11.20
2016,06,13,13,53,11.20
2016,06,13,13,54,11.20
2016,06,13,13,55,11.30
2016,06,13,13,56,11.30
2016,06,13,13,57,11.40
2016,06,13,13,58,11.40
2016,06,13,13,59,11.40
2016,06,13,14,00,11.40
2016,06,13,14,01,11.40
2016,06,13,14,02,11.40
2016,06,13,14,03,11.40
2016,06,13,14,04,11.30
2016,06,13,14,05,11.30
2016,06,13,14,06,11.30
2016,06,13,14,07,11.30
2016,06,13,14,08,11.30
2016,06,13,14,09,11.40
2016,06,13,14,10,11.40
2016,06,13,14,11,11.50
2016,06,13,14,12,11.50
2016,06,13,14,13,11.60
2016,06,13,14,14,11.60
2016,06,13,14,15,11.70
2016,06,13,14,16,11.70
2016,06,13,14,17,11.80
2016,06,13,14,18,11.80
2016,06,13,14,19,11.80
2016,06,13,14,20,11.80
2016,06,13,14,21,11.90
2016,06,13,14,22,11.90
2016,06,13,14,23,11.90
2016,06,13,14,24,11.90
2016,06,13,14,25,11.90
2016,06,13,14,26,11.90
2016,06,13,14,27,11.90
2016,06,13,14,28,11.90
2016,06,13,14,29,11.90
2016,06,13,14,30,11.90
2016,06,13,14,31,11.90
2016,06,13,14,32,11.90
2016,06,13,14,33,11.90
2016,06,13,14,34,11.90
2016,06,13,14,35,11.90
2016,06,13,14,36,11.90
2016,06,13,14,37,12.00
2016,06,13,14,38,12.10
2016,06,13,14,39,12.10
2016,06,13,14,40,12.10
2016,06,13,14,41,12.10
2016,06,13,14,42,12.20
2016,06,13,14,43,12.20
2016,06,13,14,44,12.30
2016,06,13,14,45,12.30
2016,06,13,14,46,12.30
2016,06,13,14,47,12.30
2016,06,13,14,48,12.30
2016,06,13,14,49,12.40
2016,06,13,14,50,12.40
2016,06,13,14,51,12.50
2016,06,13,14,52,12.50
2016,06,13,14,53,12.50
2016,06,13,14,54,12.50
2016,06,13,14,55,12.50
2016,06,13,14,56,12.50
2016,06,13,14,57,12.60
2016,06,13,14,58,12.60
2016,06,13,14,59,12.60
2016,06,13,15,00,12.60
2016,06,13,15,01,12.70
2016,06,13,15,02,12.70
2016,06,13,15,03,12.80
2016,06,13,15,04,12.80
2016,06,13,15,05,12.80
2016,06,13,15,06,12.80
2016,06,13,15,07,12.80
2016,06,13,15,08,12.80
2016,06,13,15,09,12.80
2016,06,13,15,10,12.80
2016,06,13,15,11,12.70
2016,06,13,15,12,12.70
2016,06,13,15,13,12.70
2016,06,13,15,14,12.80
2016,06,13,15,15,12.80
2016,06,13,15,16,12.80
2016,06,13,15,17,12.80
2016,06,13,15,18,12.70
2016,06,13,15,19,12.70
2016,06,13,15,20,12.60
2016,06,13,15,21,12.60
2016,06,13,15,22,12.60
2016,06,13,15,23,12.70
2016,06,13,15,24,12.70
2016,06,13,15,25,12.70
2016,06,13,15,26,12.80
2016,06,13,15,27,12.80
2016,06,13,15,28,12.80
2016,06,13,15,29,12.80
2016,06,13,15,30,12.80
2016,06,13,15,31,12.90
2016,06,13,15,32,13.00
2016,06,13,15,33,13.00
2016,06,13,15,34,13.00
2016,06,13,15,35,13.10
2016,06,13,15,36,13.00
2016,06,13,15,37,13.00
2016,06,13,15,38,13.00
2016,06,13,15,39,13.00
2016,06,13,15,40,13.00
2016,06,13,15,41,13.00
2016,06,13,15,42,13.00
2016,06,13,15,43,13.00
2016,06,13,15,44,13.00
2016,06,13,15,45,13.00
2016,06,13,15,46,13.10
2016,06,13,15,47,13.10
2016,06,13,15,48,13.10
2016,06,13,15,49,13.10
2016,06,13,15,50,13.10
2016,06,13,15,51,13.10
2016,06,13,15,52,13.10
2016,06,13,15,53,13.00
2016,06,13,15,54,13.00
2016,06,13,15,55,13.00
2016,06,13,15,56,12.90
2016,06,13,15,57,12.90
2016,06,13,15,58,12.90
2016,06,13,15,59,12.90
2016,06,13,16,00,12.80
2016,06,13,16,01,12.80
2016,06,13,16,02,12.70
2016,06,13,16,03,12.70
2016,06,13,16,04,12.70
2016,06,13,16,05,12.70
2016,06,13,16,06,12.60
2016,06,13,16,07,12.60
2016,06,13,16,08,12.60
2016,06,13,16,09,12.60
2016,06,13,16,10,12.60
2016,06,13,16,11,12.50
2016,06,13,16,12,12.50
2016,06,13,16,13,12.40
2016,06,13,16,14,12.40
2016,06,13,16,15,12.30
2016,06,13,16,16,12.30
2016,06,13,16,17,12.30
2016,06,13,16,18,12.30
2016,06,13,16,19,12.30
2016,06,13,16,20,12.20
2016,06,13,16,21,12.20
2016,06,13,16,22,12.20
2016,06,13,16,23,12.20
2016,06,13,16,24,12.20
2016,06,13,16,25,12.20
2016,06,13,16,26,12.10
2016,06,13,16,27,12.10
2016,06,13,16,28,12.10
2016,06,13,16,29,12.10
2016,06,13,16,30,12.00
2016,06,13,16,31,12.00
2016,06,13,16,32,12.00
2016,06,13,16,33,12.00
2016,06,13,16,34,11.90
2016,06,13,16,35,11.90
2016,06,13,16,36,11.90
2016,06,13,16,37,11.80
2016,06,13,16,38,11.80
2016,06,13,16,39,11.80
2016,06,13,16,40,11.70
2016,06,13,16,41,11.70
2016,06,13,16,42,11.60
2016,06,13,16,43,11.60
2016,06,13,16,44,11.60
2016,06,13,16,45,11.60
2016,06,13,16,46,11.60
2016,06,13,16,47,11.60
2016,06,13,16,48,11.60
2016,06,13,16,49,11.60
2016,06,13,16,50,11.50
2016,06,13,16,51,11.50
2016,06,13,16,52,11.40
2016,06,13,16,53,11.40
2016,06,13,16,54,11.40
2016,06,13,16,55,11.40
2016,06,13,16,56,11.40
2016,06,13,16,57,11.40
2016,06,13,16,58,11.30
2016,06,13,16,59,11.30
2016,06,13,17,00,11.30
2016,06,13,17,01,11.30
2016,06,13,17,02,11.20
2016,06,13,17,03,11.20
2016,06,13,17,04,11.20
2016,06,13,17,05,11.20
2016,06,13,17,06,11.20
2016,06,13,17,07,11.20
2016,06,13,17,08,11.20
2016,06,13,17,09,11.20
2016,06,13,17,10,11.20
2016,06,13,17,11,11.20
2016,06,13,17,12,11.20
2016,06,13,17,13,11.20
2016,06,13,17,14,11.20
2016,06,13,17,15,11.30
2016,06,13,17,16,11.20
2016,06,13,17,17,11.20
2016,06,13,17,18,11.20
2016,06,13,17,19,11.10
2016,06,13,17,20,11.10
2016,06,13,17,21,11.10